Time,TemperatureF,DewpointF,PressureIn,WindDirection,WindDirectionDegrees,WindSpeedMPH,WindSpeedGustMPH,Humidity,HourlyPrecipIn,Conditions,Clouds,dailyrainin,SoftwareType,DateUTC
2013-10-31 00:01:00,50.0,48.9,30.21,WSW,243,0.0,0.0,96,0.00,,,0.00,Wunderground v.1.12,2013-10-31 04:01:00,
2013-10-31 00:02:00,50.0,48.9,30.21,WSW,243,0.0,0.0,96,0.00,,,0.00,Wunderground v.1.12,2013-10-31 04:02:00,
2013-10-31 00:04:00,50.1,49.0,30.21,WSW,243,0.0,0.0,96,0.00,,,0.00,Wunderground v.1.12,2013-10-31 04:04:00,
2013-10-31 00:09:00,50.1,49.0,30.21,WSW,243,0.0,0.0,96,0.00,,,0.00,Wunderground v.1.12,2013-10-31 04:09:00,
2013-10-31 00:14:00,50.1,49.0,30.21,WSW,243,0.0,0.0,96,0.00,,,0.00,Wunderground v.1.12,2013-10-31 04:14:00,
2013-10-31 00:19:00,50.1,49.0,30.21,WSW,243,0.0,0.0,96,0.00,,,0.00,Wunderground v.1.12,2013-10-31 04:19:00,
2013-10-31 00:25:00,50.1,49.0,30.20,WSW,243,0.0,0.0,96,0.00,,,0.00,Wunderground v.1.12,2013-10-31 04:25:00,
2013-10-31 00:30:00,50.1,49.0,30.20,WSW,243,0.0,0.0,96,0.00,,,0.00,Wunderground v.1.12,2013-10-31 04:30:00,
2013-10-31 00:35:00,50.1,49.0,30.20,WSW,243,0.0,0.0,96,0.00,,,0.00,Wunderground v.1.12,2013-10-31 04:35:00,
2013-10-31 00:40:00,50.0,48.9,30.19,WSW,243,0.0,0.0,96,0.00,,,0.00,Wunderground v.1.12,2013-10-31 04:40:00,
2013-10-31 00:46:00,50.0,48.9,30.19,WSW,243,0.0,0.0,96,0.00,,,0.00,Wunderground v.1.12,2013-10-31 04:46:00,
2013-10-31 00:52:00,50.0,48.9,30.19,WSW,243,0.0,0.0,96,0.00,,,0.00,Wunderground v.1.12,2013-10-31 04:52:00,
2013-10-31 00:59:00,49.9,48.8,30.19,WSW,243,0.0,0.0,96,0.00,,,0.00,Wunderground v.1.12,2013-10-31 04:59:00,
2013-10-31 01:04:00,49.9,48.8,30.19,WSW,243,0.0,0.0,96,0.00,,,0.00,Wunderground v.1.12,2013-10-31 05:04:00,
2013-10-31 01:09:00,49.9,48.8,30.19,WSW,243,0.0,0.0,96,0.00,,,0.00,Wunderground v.1.12,2013-10-31 05:09:00,
2013-10-31 01:14:00,50.0,48.6,30.19,WSW,243,0.0,0.0,95,0.00,,,0.00,Wunderground v.1.12,2013-10-31 05:14:00,
2013-10-31 01:19:00,50.0,48.6,30.19,WSW,243,0.0,0.0,95,0.00,,,0.00,Wunderground v.1.12,2013-10-31 05:19:00,
2013-10-31 01:25:00,50.1,48.7,30.18,WSW,243,0.0,0.0,95,0.00,,,0.00,Wunderground v.1.12,2013-10-31 05:25:00,
2013-10-31 01:31:00,50.1,48.7,30.18,WSW,243,0.0,0.0,95,0.00,,,0.00,Wunderground v.1.12,2013-10-31 05:31:00,
2013-10-31 01:37:00,50.1,48.4,30.17,WSW,243,0.0,0.0,94,0.00,,,0.00,Wunderground v.1.12,2013-10-31 05:37:00,
2013-10-31 01:44:00,50.1,48.4,30.17,WSW,249,0.0,0.0,94,0.00,,,0.00,Wunderground v.1.12,2013-10-31 05:44:00,
2013-10-31 01:49:00,50.2,48.5,30.17,WSW,249,0.0,0.0,94,0.00,,,0.00,Wunderground v.1.12,2013-10-31 05:49:00,
2013-10-31 01:54:00,50.2,48.5,30.17,WSW,249,0.0,0.0,94,0.00,,,0.00,Wunderground v.1.12,2013-10-31 05:54:00,
2013-10-31 02:00:00,50.2,48.5,30.17,WSW,249,0.0,0.0,94,0.00,,,0.00,Wunderground v.1.12,2013-10-31 06:00:00,
2013-10-31 02:05:00,50.1,48.4,30.17,WSW,249,0.0,0.0,94,0.00,,,0.00,Wunderground v.1.12,2013-10-31 06:05:00,
2013-10-31 02:10:00,50.1,48.4,30.17,WSW,249,0.0,0.0,94,0.00,,,0.00,Wunderground v.1.12,2013-10-31 06:10:00,
2013-10-31 02:15:00,50.2,48.5,30.17,WSW,249,0.0,0.0,94,0.00,,,0.00,Wunderground v.1.12,2013-10-31 06:15:00,
2013-10-31 02:20:00,50.2,48.5,30.17,WSW,249,0.0,0.0,94,0.00,,,0.00,Wunderground v.1.12,2013-10-31 06:20:00,
2013-10-31 02:25:00,50.2,48.5,30.17,WSW,249,0.0,0.0,94,0.00,,,0.00,Wunderground v.1.12,2013-10-31 06:25:00,
2013-10-31 02:30:00,50.2,48.5,30.17,WSW,249,0.0,0.0,94,0.00,,,0.00,Wunderground v.1.12,2013-10-31 06:30:00,
2013-10-31 02:35:00,50.1,48.4,30.17,WSW,249,0.0,0.0,94,0.00,,,0.00,Wunderground v.1.12,2013-10-31 06:35:00,
2013-10-31 02:40:00,50.1,48.4,30.18,WSW,249,0.0,0.0,94,0.00,,,0.00,Wunderground v.1.12,2013-10-31 06:40:00,
2013-10-31 02:45:00,50.0,48.3,30.18,WSW,249,0.0,0.0,94,0.00,,,0.00,Wunderground v.1.12,2013-10-31 06:45:00,
2013-10-31 02:50:00,50.1,48.4,30.18,WSW,254,0.0,0.0,94,0.00,,,0.00,Wunderground v.1.12,2013-10-31 06:50:00,
2013-10-31 02:56:00,50.2,48.5,30.18,WSW,240,0.0,0.0,94,0.00,,,0.00,Wunderground v.1.12,2013-10-31 06:56:00,
2013-10-31 03:01:00,50.3,48.6,30.18,WSW,248,0.0,0.0,94,0.00,,,0.00,Wunderground v.1.12,2013-10-31 07:01:00,
2013-10-31 03:06:00,50.4,48.5,30.17,WSW,240,0.0,0.0,93,0.00,,,0.00,Wunderground v.1.12,2013-10-31 07:06:00,
2013-10-31 03:11:00,50.5,48.6,30.17,WSW,240,0.0,0.0,93,0.00,,,0.00,Wunderground v.1.12,2013-10-31 07:11:00,
2013-10-31 03:16:00,50.5,48.6,30.17,WSW,240,0.0,0.0,93,0.00,,,0.00,Wunderground v.1.12,2013-10-31 07:16:00,
2013-10-31 03:21:00,50.6,48.7,30.18,WSW,244,0.0,0.0,93,0.00,,,0.00,Wunderground v.1.12,2013-10-31 07:21:00,
2013-10-31 03:26:00,50.6,48.7,30.18,WSW,249,0.0,1.0,93,0.00,,,0.00,Wunderground v.1.12,2013-10-31 07:26:00,
2013-10-31 03:31:00,50.5,48.6,30.18,WSW,246,0.0,0.0,93,0.00,,,0.00,Wunderground v.1.12,2013-10-31 07:31:00,
2013-10-31 03:37:00,50.5,48.6,30.17,WSW,238,0.0,1.0,93,0.00,,,0.00,Wunderground v.1.12,2013-10-31 07:37:00,
2013-10-31 03:42:00,50.5,48.6,30.17,WSW,247,0.0,1.0,93,0.00,,,0.00,Wunderground v.1.12,2013-10-31 07:42:00,
2013-10-31 03:47:00,50.6,48.7,30.17,WSW,247,0.0,0.0,93,0.00,,,0.00,Wunderground v.1.12,2013-10-31 07:47:00,
2013-10-31 03:52:00,50.7,48.7,30.16,WSW,238,0.0,0.0,93,0.00,,,0.00,Wunderground v.1.12,2013-10-31 07:52:00,
2013-10-31 03:57:00,50.8,48.8,30.16,SW,230,0.0,0.0,93,0.00,,,0.00,Wunderground v.1.12,2013-10-31 07:57:00,
2013-10-31 04:02:00,50.8,48.8,30.16,SW,229,0.0,1.0,93,0.00,,,0.00,Wunderground v.1.12,2013-10-31 08:02:00,
2013-10-31 04:07:00,50.8,48.6,30.15,WSW,237,0.0,0.0,92,0.00,,,0.00,Wunderground v.1.12,2013-10-31 08:07:00,
2013-10-31 04:12:00,50.8,48.8,30.15,WSW,239,0.0,0.0,93,0.00,,,0.00,Wunderground v.1.12,2013-10-31 08:12:00,
2013-10-31 04:17:00,50.8,48.8,30.15,WSW,248,0.0,0.0,93,0.00,,,0.00,Wunderground v.1.12,2013-10-31 08:17:00,
2013-10-31 04:22:00,50.8,48.8,30.15,WSW,248,0.0,0.0,93,0.00,,,0.00,Wunderground v.1.12,2013-10-31 08:22:00,
2013-10-31 04:27:00,50.6,48.7,30.15,WSW,248,0.0,0.0,93,0.00,,,0.00,Wunderground v.1.12,2013-10-31 08:27:00,
2013-10-31 04:32:00,50.6,48.7,30.15,WSW,248,0.0,0.0,93,0.00,,,0.00,Wunderground v.1.12,2013-10-31 08:32:00,
2013-10-31 04:38:00,50.6,48.7,30.14,WSW,248,0.0,0.0,93,0.00,,,0.00,Wunderground v.1.12,2013-10-31 08:38:00,
2013-10-31 04:43:00,50.5,48.6,30.14,WSW,248,0.0,0.0,93,0.00,,,0.00,Wunderground v.1.12,2013-10-31 08:43:00,
2013-10-31 04:49:00,50.4,48.5,30.14,WSW,248,0.0,0.0,93,0.00,,,0.00,Wunderground v.1.12,2013-10-31 08:49:00,
2013-10-31 04:54:00,50.4,48.5,30.14,WSW,248,0.0,0.0,93,0.00,,,0.00,Wunderground v.1.12,2013-10-31 08:54:00,
2013-10-31 04:59:00,50.4,48.5,30.14,WSW,248,0.0,0.0,93,0.00,,,0.00,Wunderground v.1.12,2013-10-31 08:59:00,
2013-10-31 05:04:00,50.4,48.5,30.14,WSW,248,0.0,0.0,93,0.00,,,0.00,Wunderground v.1.12,2013-10-31 09:04:00,
2013-10-31 05:09:00,50.4,48.7,30.14,WSW,248,0.0,0.0,94,0.00,,,0.00,Wunderground v.1.12,2013-10-31 09:09:00,
2013-10-31 05:14:00,50.3,48.6,30.14,WSW,248,0.0,0.0,94,0.00,,,0.00,Wunderground v.1.12,2013-10-31 09:14:00,
2013-10-31 05:19:00,50.3,48.6,30.14,WSW,248,0.0,0.0,94,0.00,,,0.00,Wunderground v.1.12,2013-10-31 09:19:00,
2013-10-31 05:24:00,50.4,48.7,30.14,WSW,248,0.0,0.0,94,0.00,,,0.00,Wunderground v.1.12,2013-10-31 09:24:00,
2013-10-31 05:29:00,50.4,48.7,30.14,WSW,248,0.0,0.0,94,0.00,,,0.00,Wunderground v.1.12,2013-10-31 09:29:00,
2013-10-31 05:34:00,50.4,48.7,30.14,WSW,248,0.0,0.0,94,0.00,,,0.00,Wunderground v.1.12,2013-10-31 09:34:00,
2013-10-31 05:39:00,50.4,48.7,30.13,WSW,248,0.0,0.0,94,0.00,,,0.00,Wunderground v.1.12,2013-10-31 09:39:00,
2013-10-31 05:44:00,50.4,48.7,30.13,WSW,248,0.0,0.0,94,0.00,,,0.00,Wunderground v.1.12,2013-10-31 09:44:00,
2013-10-31 05:50:00,50.3,48.6,30.13,WSW,248,0.0,0.0,94,0.00,,,0.00,Wunderground v.1.12,2013-10-31 09:50:00,
2013-10-31 05:55:00,50.4,48.7,30.13,WSW,248,0.0,0.0,94,0.00,,,0.00,Wunderground v.1.12,2013-10-31 09:55:00,
2013-10-31 06:00:00,50.4,48.7,30.13,WSW,248,0.0,0.0,94,0.00,,,0.00,Wunderground v.1.12,2013-10-31 10:00:00,
2013-10-31 06:05:00,50.5,49.1,30.13,WSW,248,0.0,0.0,95,0.00,,,0.00,Wunderground v.1.12,2013-10-31 10:05:00,
2013-10-31 06:10:00,50.6,49.2,30.13,WSW,248,0.0,0.0,95,0.00,,,0.00,Wunderground v.1.12,2013-10-31 10:10:00,
2013-10-31 06:15:00,50.6,49.2,30.13,WSW,248,0.0,0.0,95,0.00,,,0.00,Wunderground v.1.12,2013-10-31 10:15:00,
2013-10-31 06:20:00,50.6,48.9,30.13,WSW,248,0.0,0.0,94,0.00,,,0.00,Wunderground v.1.12,2013-10-31 10:20:00,
2013-10-31 06:25:00,50.7,49.3,30.13,WSW,248,0.0,0.0,95,0.00,,,0.00,Wunderground v.1.12,2013-10-31 10:25:00,
2013-10-31 06:30:00,50.7,49.0,30.13,WSW,248,0.0,0.0,94,0.00,,,0.00,Wunderground v.1.12,2013-10-31 10:30:00,
2013-10-31 06:35:00,50.7,49.0,30.13,WSW,248,0.0,0.0,94,0.00,,,0.00,Wunderground v.1.12,2013-10-31 10:35:00,
2013-10-31 06:40:00,50.6,48.9,30.13,WSW,248,0.0,0.0,94,0.00,,,0.00,Wunderground v.1.12,2013-10-31 10:40:00,
2013-10-31 06:45:00,50.5,48.8,30.13,WSW,248,0.0,0.0,94,0.00,,,0.00,Wunderground v.1.12,2013-10-31 10:45:00,
2013-10-31 06:51:00,50.5,48.8,30.13,WSW,248,0.0,0.0,94,0.00,,,0.00,Wunderground v.1.12,2013-10-31 10:51:00,
2013-10-31 06:56:00,50.6,49.2,30.12,WSW,248,0.0,0.0,95,0.00,,,0.00,Wunderground v.1.12,2013-10-31 10:56:00,
2013-10-31 07:01:00,50.6,48.9,30.12,WSW,248,0.0,0.0,94,0.00,,,0.00,Wunderground v.1.12,2013-10-31 11:01:00,
2013-10-31 07:06:00,50.6,49.2,30.12,WSW,248,0.0,0.0,95,0.00,,,0.00,Wunderground v.1.12,2013-10-31 11:06:00,
2013-10-31 07:11:00,50.6,49.2,30.12,WSW,248,0.0,0.0,95,0.00,,,0.00,Wunderground v.1.12,2013-10-31 11:11:00,
2013-10-31 07:16:00,50.7,49.3,30.12,WSW,248,0.0,0.0,95,0.00,,,0.00,Wunderground v.1.12,2013-10-31 11:16:00,
2013-10-31 07:21:00,50.8,49.4,30.11,WSW,248,0.0,0.0,95,0.00,,,0.00,Wunderground v.1.12,2013-10-31 11:21:00,
2013-10-31 07:26:00,50.8,49.4,30.11,WSW,248,0.0,0.0,95,0.00,,,0.00,Wunderground v.1.12,2013-10-31 11:26:00,
2013-10-31 07:31:00,50.9,49.5,30.11,WSW,248,0.0,0.0,95,0.00,,,0.00,Wunderground v.1.12,2013-10-31 11:31:00,
2013-10-31 07:36:00,50.9,49.5,30.11,WSW,248,0.0,0.0,95,0.00,,,0.00,Wunderground v.1.12,2013-10-31 11:36:00,
2013-10-31 07:41:00,50.9,49.5,30.11,WSW,248,0.0,0.0,95,0.00,,,0.00,Wunderground v.1.12,2013-10-31 11:41:00,
2013-10-31 07:46:00,51.0,49.6,30.11,WSW,248,0.0,0.0,95,0.00,,,0.00,Wunderground v.1.12,2013-10-31 11:46:00,
2013-10-31 07:51:00,51.0,49.6,30.11,WSW,248,0.0,0.0,95,0.00,,,0.00,Wunderground v.1.12,2013-10-31 11:51:00,
2013-10-31 07:56:00,51.1,49.7,30.11,WSW,248,0.0,0.0,95,0.00,,,0.00,Wunderground v.1.12,2013-10-31 11:56:00,
2013-10-31 08:01:00,51.1,49.7,30.11,WSW,248,0.0,0.0,95,0.00,,,0.00,Wunderground v.1.12,2013-10-31 12:01:00,
2013-10-31 08:06:00,51.2,49.8,30.11,WSW,248,0.0,0.0,95,0.00,,,0.00,Wunderground v.1.12,2013-10-31 12:06:00,
2013-10-31 08:11:00,51.2,49.8,30.11,WSW,248,0.0,0.0,95,0.00,,,0.00,Wunderground v.1.12,2013-10-31 12:11:00,
2013-10-31 08:17:00,51.4,50.3,30.11,WSW,248,0.0,0.0,96,0.00,,,0.00,Wunderground v.1.12,2013-10-31 12:17:00,
2013-10-31 08:22:00,51.4,50.0,30.11,WSW,248,0.0,0.0,95,0.00,,,0.00,Wunderground v.1.12,2013-10-31 12:22:00,
2013-10-31 08:27:00,51.5,50.1,30.11,WSW,248,0.0,0.0,95,0.00,,,0.00,Wunderground v.1.12,2013-10-31 12:27:00,
2013-10-31 08:32:00,51.5,50.1,30.11,WSW,248,0.0,0.0,95,0.00,,,0.00,Wunderground v.1.12,2013-10-31 12:32:00,
2013-10-31 08:37:00,51.7,50.6,30.12,WSW,248,0.0,0.0,96,0.00,,,0.00,Wunderground v.1.12,2013-10-31 12:37:00,
2013-10-31 08:42:00,51.8,50.7,30.12,WSW,242,0.0,0.0,96,0.00,,,0.00,Wunderground v.1.12,2013-10-31 12:42:00,
2013-10-31 08:47:00,51.8,50.7,30.12,WSW,242,0.0,0.0,96,0.00,,,0.00,Wunderground v.1.12,2013-10-31 12:47:00,
2013-10-31 08:52:00,51.8,50.7,30.13,WSW,237,0.0,1.0,96,0.00,,,0.00,Wunderground v.1.12,2013-10-31 12:52:00,
2013-10-31 08:57:00,51.9,50.8,30.13,WSW,257,0.0,0.0,96,0.00,,,0.00,Wunderground v.1.12,2013-10-31 12:57:00,
2013-10-31 09:02:00,51.8,50.7,30.13,WSW,257,0.0,0.0,96,0.00,,,0.00,Wunderground v.1.12,2013-10-31 13:02:00,
2013-10-31 09:07:00,51.9,50.8,30.13,WSW,257,0.0,0.0,96,0.00,,,0.00,Wunderground v.1.12,2013-10-31 13:07:00,
2013-10-31 09:12:00,52.0,51.2,30.13,WSW,257,0.0,0.0,97,0.00,,,0.00,Wunderground v.1.12,2013-10-31 13:12:00,
2013-10-31 09:17:00,52.1,51.3,30.13,WSW,253,0.0,0.0,97,0.00,,,0.00,Wunderground v.1.12,2013-10-31 13:17:00,
2013-10-31 09:22:00,52.1,51.3,30.12,WSW,253,0.0,0.0,97,0.00,,,0.00,Wunderground v.1.12,2013-10-31 13:22:00,
2013-10-31 09:27:00,52.1,51.0,30.12,WSW,253,0.0,0.0,96,0.00,,,0.00,Wunderground v.1.12,2013-10-31 13:27:00,
2013-10-31 09:32:00,52.0,50.9,30.12,WSW,253,0.0,0.0,96,0.00,,,0.00,Wunderground v.1.12,2013-10-31 13:32:00,
2013-10-31 09:37:00,52.1,51.3,30.10,WSW,253,0.0,0.0,97,0.00,,,0.00,Wunderground v.1.12,2013-10-31 13:37:00,
2013-10-31 09:42:00,52.1,51.3,30.10,WSW,253,0.0,0.0,97,0.00,,,0.00,Wunderground v.1.12,2013-10-31 13:42:00,
2013-10-31 09:47:00,52.2,51.4,30.10,WSW,253,0.0,0.0,97,0.00,,,0.00,Wunderground v.1.12,2013-10-31 13:47:00,
2013-10-31 09:53:00,52.3,51.5,30.09,WSW,253,0.0,0.0,97,0.00,,,0.00,Wunderground v.1.12,2013-10-31 13:53:00,
2013-10-31 09:58:00,52.4,51.6,30.09,WSW,253,0.0,0.0,97,0.00,,,0.00,Wunderground v.1.12,2013-10-31 13:58:00,
2013-10-31 10:03:00,52.5,51.7,30.09,WSW,253,0.0,0.0,97,0.00,,,0.00,Wunderground v.1.12,2013-10-31 14:03:00,
2013-10-31 10:08:00,52.7,51.9,30.09,WSW,253,0.0,0.0,97,0.00,,,0.00,Wunderground v.1.12,2013-10-31 14:08:00,
2013-10-31 10:14:00,52.9,52.1,30.09,WSW,253,0.0,0.0,97,0.00,,,0.00,Wunderground v.1.12,2013-10-31 14:14:00,
2013-10-31 10:19:00,53.0,52.2,30.09,WSW,253,0.0,0.0,97,0.00,,,0.00,Wunderground v.1.12,2013-10-31 14:19:00,
2013-10-31 10:24:00,53.2,52.1,30.08,WSW,253,0.0,0.0,96,0.00,,,0.00,Wunderground v.1.12,2013-10-31 14:24:00,
2013-10-31 10:29:00,53.3,52.2,30.08,WSW,238,0.0,0.0,96,0.00,,,0.00,Wunderground v.1.12,2013-10-31 14:29:00,
2013-10-31 10:34:00,53.5,52.4,30.08,WSW,238,0.0,0.0,96,0.00,,,0.00,Wunderground v.1.12,2013-10-31 14:34:00,
2013-10-31 10:39:00,53.6,52.5,30.07,WSW,238,0.0,1.0,96,0.00,,,0.00,Wunderground v.1.12,2013-10-31 14:39:00,
2013-10-31 10:44:00,53.7,52.6,30.07,WSW,238,0.0,0.0,96,0.00,,,0.00,Wunderground v.1.12,2013-10-31 14:44:00,
2013-10-31 10:49:00,53.7,52.3,30.07,WSW,238,0.0,0.0,95,0.00,,,0.00,Wunderground v.1.12,2013-10-31 14:49:00,
2013-10-31 10:54:00,53.8,52.4,30.07,WSW,238,0.0,0.0,95,0.00,,,0.00,Wunderground v.1.12,2013-10-31 14:54:00,
2013-10-31 10:59:00,53.8,52.4,30.07,WSW,238,0.0,0.0,95,0.00,,,0.00,Wunderground v.1.12,2013-10-31 14:59:00,
2013-10-31 11:04:00,53.8,52.4,30.07,WSW,238,0.0,0.0,95,0.00,,,0.00,Wunderground v.1.12,2013-10-31 15:04:00,
2013-10-31 11:09:00,53.7,52.3,30.07,WSW,238,0.0,0.0,95,0.00,,,0.00,Wunderground v.1.12,2013-10-31 15:09:00,
2013-10-31 11:15:00,53.8,52.7,30.07,WSW,238,0.0,0.0,96,0.00,,,0.00,Wunderground v.1.12,2013-10-31 15:15:00,
2013-10-31 11:20:00,53.8,52.7,30.07,WSW,238,0.0,0.0,96,0.00,,,0.00,Wunderground v.1.12,2013-10-31 15:20:00,
2013-10-31 11:25:00,53.9,52.8,30.06,WSW,238,0.0,0.0,96,0.00,,,0.00,Wunderground v.1.12,2013-10-31 15:25:00,
2013-10-31 11:30:00,53.8,52.7,30.06,WSW,240,0.0,0.0,96,0.28,,,0.02,Wunderground v.1.12,2013-10-31 15:30:00,
2013-10-31 11:35:00,53.8,52.7,30.06,WSW,240,0.0,0.0,96,0.11,,,0.02,Wunderground v.1.12,2013-10-31 15:35:00,
2013-10-31 11:40:00,53.8,52.7,30.06,WSW,240,0.0,0.0,96,0.06,,,0.02,Wunderground v.1.12,2013-10-31 15:40:00,
2013-10-31 11:45:00,53.9,53.1,30.06,WSW,238,0.0,0.0,97,0.04,,,0.02,Wunderground v.1.12,2013-10-31 15:45:00,
2013-10-31 11:50:00,53.9,53.1,30.06,WSW,238,0.0,0.0,97,0.00,,,0.02,Wunderground v.1.12,2013-10-31 15:50:00,
2013-10-31 11:55:00,54.0,53.2,30.06,WSW,238,0.0,0.0,97,0.00,,,0.02,Wunderground v.1.12,2013-10-31 15:55:00,
2013-10-31 12:00:00,54.1,53.3,30.06,WSW,238,0.0,0.0,97,0.00,,,0.02,Wunderground v.1.12,2013-10-31 16:00:00,
2013-10-31 12:05:00,54.2,53.4,30.06,WSW,238,0.0,0.0,97,0.00,,,0.02,Wunderground v.1.12,2013-10-31 16:05:00,
2013-10-31 12:10:00,54.3,53.5,30.05,WSW,238,0.0,0.0,97,0.00,,,0.02,Wunderground v.1.12,2013-10-31 16:10:00,
2013-10-31 12:15:00,54.5,53.9,30.05,WSW,238,0.0,0.0,98,0.00,,,0.02,Wunderground v.1.12,2013-10-31 16:15:00,
2013-10-31 12:20:00,54.6,54.0,30.05,WSW,242,0.0,0.0,98,0.00,,,0.02,Wunderground v.1.12,2013-10-31 16:20:00,
2013-10-31 12:25:00,54.8,54.2,30.03,WSW,242,0.0,0.0,98,0.00,,,0.02,Wunderground v.1.12,2013-10-31 16:25:00,
2013-10-31 12:30:00,54.9,54.3,30.03,WSW,242,0.0,0.0,98,0.00,,,0.02,Wunderground v.1.12,2013-10-31 16:30:00,
2013-10-31 12:36:00,54.9,54.3,30.03,WSW,242,0.0,0.0,98,0.00,,,0.02,Wunderground v.1.12,2013-10-31 16:36:00,
2013-10-31 12:41:00,55.0,54.4,30.02,WSW,242,0.0,0.0,98,0.00,,,0.02,Wunderground v.1.12,2013-10-31 16:41:00,
2013-10-31 12:46:00,55.3,54.7,30.02,WSW,242,0.0,0.0,98,0.00,,,0.02,Wunderground v.1.12,2013-10-31 16:46:00,
2013-10-31 12:51:00,55.3,54.7,30.00,WSW,242,0.0,0.0,98,0.00,,,0.02,Wunderground v.1.12,2013-10-31 16:51:00,
2013-10-31 12:56:00,55.5,54.9,30.00,WSW,242,0.0,0.0,98,0.00,,,0.02,Wunderground v.1.12,2013-10-31 16:56:00,
2013-10-31 13:01:00,55.7,55.1,30.00,WSW,242,0.0,0.0,98,0.00,,,0.02,Wunderground v.1.12,2013-10-31 17:01:00,
2013-10-31 13:06:00,55.9,55.3,29.99,WSW,254,0.0,1.0,98,0.00,,,0.02,Wunderground v.1.12,2013-10-31 17:06:00,
2013-10-31 13:11:00,56.1,55.5,29.99,WSW,253,0.0,0.0,98,0.00,,,0.02,Wunderground v.1.12,2013-10-31 17:11:00,
2013-10-31 13:16:00,56.3,55.7,29.99,WSW,253,0.0,0.0,98,0.00,,,0.02,Wunderground v.1.12,2013-10-31 17:16:00,
2013-10-31 13:21:00,56.5,55.9,29.99,WSW,253,0.0,0.0,98,0.00,,,0.02,Wunderground v.1.12,2013-10-31 17:21:00,
2013-10-31 13:26:00,56.5,55.9,29.99,WSW,253,0.0,0.0,98,0.00,,,0.02,Wunderground v.1.12,2013-10-31 17:26:00,
2013-10-31 13:31:00,56.6,55.8,29.99,WSW,248,0.0,0.0,97,0.00,,,0.02,Wunderground v.1.12,2013-10-31 17:31:00,
2013-10-31 13:36:00,56.9,56.1,29.97,WSW,248,0.0,0.0,97,0.00,,,0.02,Wunderground v.1.12,2013-10-31 17:36:00,
2013-10-31 13:42:00,56.9,56.1,29.97,WSW,248,0.0,0.0,97,0.00,,,0.02,Wunderground v.1.12,2013-10-31 17:42:00,
2013-10-31 13:47:00,57.0,56.2,29.97,WSW,248,0.0,0.0,97,0.00,,,0.02,Wunderground v.1.12,2013-10-31 17:47:00,
2013-10-31 13:52:00,57.0,56.2,29.97,WSW,248,0.0,1.0,97,0.00,,,0.02,Wunderground v.1.12,2013-10-31 17:52:00,
2013-10-31 13:57:00,57.2,56.4,29.97,WSW,248,0.0,0.0,97,0.00,,,0.02,Wunderground v.1.12,2013-10-31 17:57:00,
2013-10-31 14:02:00,57.3,56.5,29.97,WSW,248,0.0,0.0,97,0.00,,,0.02,Wunderground v.1.12,2013-10-31 18:02:00,
2013-10-31 14:07:00,57.4,56.6,29.96,WSW,248,0.0,0.0,97,0.00,,,0.02,Wunderground v.1.12,2013-10-31 18:07:00,
2013-10-31 14:12:00,57.4,56.3,29.96,WSW,248,0.0,0.0,96,0.00,,,0.02,Wunderground v.1.12,2013-10-31 18:12:00,
2013-10-31 14:17:00,57.4,56.3,29.96,WSW,248,0.0,1.0,96,0.00,,,0.02,Wunderground v.1.12,2013-10-31 18:17:00,
2013-10-31 14:22:00,57.6,56.5,29.96,SW,236,0.0,0.0,96,0.00,,,0.02,Wunderground v.1.12,2013-10-31 18:22:00,
2013-10-31 14:27:00,57.6,56.5,29.96,SW,236,0.0,0.0,96,0.00,,,0.02,Wunderground v.1.12,2013-10-31 18:27:00,
2013-10-31 14:32:00,57.7,56.6,29.96,SW,236,0.0,0.0,96,0.00,,,0.02,Wunderground v.1.12,2013-10-31 18:32:00,
2013-10-31 14:37:00,57.8,56.7,29.96,WSW,255,0.0,0.0,96,0.00,,,0.02,Wunderground v.1.12,2013-10-31 18:37:00,
2013-10-31 14:42:00,57.9,56.5,29.96,WSW,247,0.0,1.0,95,0.00,,,0.02,Wunderground v.1.12,2013-10-31 18:42:00,
2013-10-31 14:47:00,58.0,56.6,29.96,WSW,247,0.0,0.0,95,0.00,,,0.02,Wunderground v.1.12,2013-10-31 18:47:00,
2013-10-31 14:52:00,58.0,56.6,29.95,WSW,248,0.0,0.0,95,0.00,,,0.02,Wunderground v.1.12,2013-10-31 18:52:00,
2013-10-31 14:57:00,58.0,56.6,29.95,WSW,247,0.0,0.0,95,0.00,,,0.02,Wunderground v.1.12,2013-10-31 18:57:00,
2013-10-31 15:02:00,58.1,56.7,29.95,WSW,247,0.0,0.0,95,0.00,,,0.02,Wunderground v.1.12,2013-10-31 19:02:00,
2013-10-31 15:07:00,58.0,56.6,29.95,WSW,248,0.0,0.0,95,0.00,,,0.02,Wunderground v.1.12,2013-10-31 19:07:00,
2013-10-31 15:12:00,58.0,56.6,29.95,WSW,247,0.0,0.0,95,0.00,,,0.02,Wunderground v.1.12,2013-10-31 19:12:00,
2013-10-31 15:17:00,58.0,56.6,29.95,WSW,247,0.0,0.0,95,0.00,,,0.02,Wunderground v.1.12,2013-10-31 19:17:00,
2013-10-31 15:22:00,58.1,56.7,29.94,WSW,248,0.0,0.0,95,0.00,,,0.02,Wunderground v.1.12,2013-10-31 19:22:00,
2013-10-31 15:28:00,58.1,56.7,29.94,WSW,248,0.0,0.0,95,0.00,,,0.02,Wunderground v.1.12,2013-10-31 19:28:00,
2013-10-31 15:33:00,58.1,56.7,29.94,WSW,248,0.0,1.0,95,0.00,,,0.02,Wunderground v.1.12,2013-10-31 19:33:00,
2013-10-31 15:38:00,58.1,57.0,29.94,WSW,248,0.0,0.0,96,0.00,,,0.02,Wunderground v.1.12,2013-10-31 19:38:00,
2013-10-31 15:43:00,58.2,57.1,29.94,WSW,248,0.0,0.0,96,0.00,,,0.02,Wunderground v.1.12,2013-10-31 19:43:00,
2013-10-31 15:49:00,58.2,57.1,29.94,WSW,248,0.0,1.0,96,0.00,,,0.02,Wunderground v.1.12,2013-10-31 19:49:00,
2013-10-31 15:53:00,58.3,57.2,29.93,WSW,248,0.0,0.0,96,0.00,,,0.02,Wunderground v.1.12,2013-10-31 19:53:00,
2013-10-31 15:59:00,58.4,57.3,29.93,WSW,248,0.0,0.0,96,0.00,,,0.02,Wunderground v.1.12,2013-10-31 19:59:00,
2013-10-31 16:04:00,58.5,57.4,29.93,WSW,248,0.0,0.0,96,0.00,,,0.02,Wunderground v.1.12,2013-10-31 20:04:00,
2013-10-31 16:09:00,58.5,57.4,29.93,WSW,248,0.0,0.0,96,0.00,,,0.02,Wunderground v.1.12,2013-10-31 20:09:00,
2013-10-31 16:14:00,58.6,57.5,29.93,WSW,248,0.0,0.0,96,0.00,,,0.02,Wunderground v.1.12,2013-10-31 20:14:00,
2013-10-31 16:19:00,58.7,57.6,29.93,WSW,248,0.0,0.0,96,0.00,,,0.02,Wunderground v.1.12,2013-10-31 20:19:00,
2013-10-31 16:24:00,58.7,57.6,29.93,SW,227,1.0,2.0,96,0.00,,,0.02,Wunderground v.1.12,2013-10-31 20:24:00,
2013-10-31 16:29:00,59.0,57.9,29.93,WSW,257,0.0,0.0,96,0.00,,,0.03,Wunderground v.1.12,2013-10-31 20:29:00,
2013-10-31 16:35:00,59.1,57.7,29.93,WSW,257,0.0,0.0,95,0.00,,,0.03,Wunderground v.1.12,2013-10-31 20:35:00,
2013-10-31 16:40:00,59.2,58.1,29.93,WSW,254,0.0,0.0,96,0.00,,,0.03,Wunderground v.1.12,2013-10-31 20:40:00,
2013-10-31 16:45:00,59.2,58.1,29.93,WSW,254,0.0,0.0,96,0.00,,,0.03,Wunderground v.1.12,2013-10-31 20:45:00,
2013-10-31 16:50:00,59.2,58.1,29.93,WSW,254,0.0,0.0,96,0.00,,,0.04,Wunderground v.1.12,2013-10-31 20:50:00,
2013-10-31 16:55:00,59.1,58.0,29.92,WSW,254,0.0,0.0,96,0.00,,,0.04,Wunderground v.1.12,2013-10-31 20:55:00,
2013-10-31 17:00:00,59.1,58.0,29.92,WSW,254,0.0,0.0,96,0.00,,,0.04,Wunderground v.1.12,2013-10-31 21:00:00,
2013-10-31 17:05:00,59.2,58.1,29.92,WSW,254,0.0,0.0,96,0.00,,,0.04,Wunderground v.1.12,2013-10-31 21:05:00,
2013-10-31 17:10:00,59.2,58.1,29.91,WSW,254,0.0,0.0,96,0.00,,,0.04,Wunderground v.1.12,2013-10-31 21:10:00,
2013-10-31 17:15:00,59.2,58.1,29.91,WSW,254,0.0,0.0,96,0.00,,,0.04,Wunderground v.1.12,2013-10-31 21:15:00,
2013-10-31 17:20:00,59.2,58.1,29.91,WSW,254,0.0,0.0,96,0.00,,,0.04,Wunderground v.1.12,2013-10-31 21:20:00,
2013-10-31 17:25:00,59.2,58.1,29.90,WSW,254,0.0,0.0,96,0.00,,,0.04,Wunderground v.1.12,2013-10-31 21:25:00,
2013-10-31 17:31:00,59.3,58.2,29.90,WSW,254,0.0,0.0,96,0.00,,,0.04,Wunderground v.1.12,2013-10-31 21:31:00,
2013-10-31 17:36:00,59.2,58.1,29.90,WSW,254,0.0,0.0,96,0.00,,,0.04,Wunderground v.1.12,2013-10-31 21:36:00,
2013-10-31 17:41:00,59.2,58.1,29.89,WSW,254,0.0,0.0,96,0.00,,,0.04,Wunderground v.1.12,2013-10-31 21:41:00,
2013-10-31 17:46:00,59.3,58.2,29.89,WSW,254,0.0,0.0,96,0.00,,,0.04,Wunderground v.1.12,2013-10-31 21:46:00,
2013-10-31 17:51:00,59.3,57.9,29.89,WSW,254,0.0,0.0,95,0.00,,,0.04,Wunderground v.1.12,2013-10-31 21:51:00,
2013-10-31 17:56:00,59.3,57.9,29.89,WSW,254,0.0,0.0,95,0.00,,,0.04,Wunderground v.1.12,2013-10-31 21:56:00,
2013-10-31 18:01:00,59.3,57.9,29.89,WSW,256,0.0,0.0,95,0.00,,,0.04,Wunderground v.1.12,2013-10-31 22:01:00,
2013-10-31 18:06:00,59.3,57.9,29.89,WSW,256,0.0,0.0,95,0.00,,,0.04,Wunderground v.1.12,2013-10-31 22:06:00,
2013-10-31 18:11:00,59.3,57.9,29.89,WSW,256,0.0,0.0,95,0.00,,,0.04,Wunderground v.1.12,2013-10-31 22:11:00,
2013-10-31 18:16:00,59.2,57.8,29.89,WSW,256,0.0,0.0,95,0.00,,,0.04,Wunderground v.1.12,2013-10-31 22:16:00,
2013-10-31 18:21:00,59.2,57.8,29.89,WSW,257,0.0,0.0,95,0.00,,,0.04,Wunderground v.1.12,2013-10-31 22:21:00,
2013-10-31 18:26:00,59.2,57.8,29.89,WSW,256,0.0,0.0,95,0.00,,,0.04,Wunderground v.1.12,2013-10-31 22:26:00,
2013-10-31 18:32:00,59.2,57.8,29.89,WSW,256,0.0,0.0,95,0.00,,,0.04,Wunderground v.1.12,2013-10-31 22:32:00,
2013-10-31 18:37:00,59.1,57.7,29.89,WSW,256,0.0,0.0,95,0.00,,,0.04,Wunderground v.1.12,2013-10-31 22:37:00,
2013-10-31 18:42:00,59.1,57.7,29.89,WSW,256,0.0,0.0,95,0.00,,,0.04,Wunderground v.1.12,2013-10-31 22:42:00,
2013-10-31 18:47:00,59.0,57.6,29.89,WSW,256,0.0,0.0,95,0.00,,,0.04,Wunderground v.1.12,2013-10-31 22:47:00,
2013-10-31 18:52:00,59.1,57.7,29.88,WSW,256,0.0,0.0,95,0.00,,,0.04,Wunderground v.1.12,2013-10-31 22:52:00,
2013-10-31 18:57:00,59.4,57.7,29.88,WSW,238,0.0,1.0,94,0.00,,,0.04,Wunderground v.1.12,2013-10-31 22:57:00,
2013-10-31 19:02:00,59.7,58.0,29.88,WSW,244,0.0,0.0,94,0.00,,,0.04,Wunderground v.1.12,2013-10-31 23:02:00,
2013-10-31 19:07:00,59.9,57.9,29.89,WSW,243,0.0,1.0,93,0.00,,,0.04,Wunderground v.1.12,2013-10-31 23:07:00,
2013-10-31 19:12:00,60.2,57.9,29.89,WSW,244,0.0,0.0,92,0.00,,,0.04,Wunderground v.1.12,2013-10-31 23:12:00,
2013-10-31 19:17:00,60.3,57.7,29.89,WSW,250,0.0,2.0,91,0.00,,,0.04,Wunderground v.1.12,2013-10-31 23:17:00,
2013-10-31 19:22:00,60.3,57.7,29.88,SW,232,0.0,1.0,91,0.00,,,0.04,Wunderground v.1.12,2013-10-31 23:22:00,
2013-10-31 19:27:00,60.3,57.7,29.88,WSW,239,0.0,0.0,91,0.00,,,0.04,Wunderground v.1.12,2013-10-31 23:27:00,
2013-10-31 19:32:00,60.5,57.6,29.88,WSW,239,0.0,0.0,90,0.00,,,0.04,Wunderground v.1.12,2013-10-31 23:32:00,
2013-10-31 19:37:00,60.5,57.6,29.87,WSW,252,0.0,1.0,90,0.00,,,0.04,Wunderground v.1.12,2013-10-31 23:37:00,
2013-10-31 19:43:00,60.5,57.6,29.87,WSW,252,0.0,0.0,90,0.00,,,0.04,Wunderground v.1.12,2013-10-31 23:43:00,
2013-10-31 19:48:00,60.3,57.4,29.87,WSW,252,0.0,1.0,90,0.00,,,0.04,Wunderground v.1.12,2013-10-31 23:48:00,
2013-10-31 19:53:00,60.2,57.3,29.87,WSW,239,0.0,2.0,90,0.00,,,0.04,Wunderground v.1.12,2013-10-31 23:53:00,
2013-10-31 19:58:00,60.2,57.3,29.87,WSW,239,0.0,0.0,90,0.00,,,0.04,Wunderground v.1.12,2013-10-31 23:58:00,
2013-10-31 20:04:00,60.2,57.3,29.87,West,260,0.0,1.0,90,0.00,,,0.04,Wunderground v.1.12,2013-11-01 00:04:00,
2013-10-31 20:09:00,60.2,57.3,29.86,WSW,246,0.0,4.0,90,0.00,,,0.04,Wunderground v.1.12,2013-11-01 00:09:00,
2013-10-31 20:14:00,60.1,56.8,29.86,WSW,245,0.0,1.0,89,0.00,,,0.04,Wunderground v.1.12,2013-11-01 00:14:00,
2013-10-31 20:19:00,60.2,56.9,29.86,WSW,254,0.0,0.0,89,0.00,,,0.04,Wunderground v.1.12,2013-11-01 00:19:00,
2013-10-31 20:24:00,60.3,57.0,29.85,WSW,247,0.0,1.0,89,0.00,,,0.04,Wunderground v.1.12,2013-11-01 00:24:00,
2013-10-31 20:29:00,60.3,56.7,29.85,WSW,247,0.0,0.0,88,0.00,,,0.04,Wunderground v.1.12,2013-11-01 00:29:00,
2013-10-31 20:34:00,60.4,56.8,29.85,WSW,256,0.0,1.0,88,0.00,,,0.04,Wunderground v.1.12,2013-11-01 00:34:00,
2013-10-31 20:39:00,60.5,56.6,29.85,WSW,252,0.0,1.0,87,0.00,,,0.04,Wunderground v.1.12,2013-11-01 00:39:00,
2013-10-31 20:44:00,60.7,56.8,29.85,WSW,242,0.0,1.0,87,0.00,,,0.04,Wunderground v.1.12,2013-11-01 00:44:00,
2013-10-31 20:49:00,60.7,56.8,29.85,SSW,199,1.0,2.0,87,0.00,,,0.04,Wunderground v.1.12,2013-11-01 00:49:00,
2013-10-31 20:54:00,60.9,56.7,29.84,WSW,250,0.0,3.0,86,0.00,,,0.04,Wunderground v.1.12,2013-11-01 00:54:00,
2013-10-31 21:00:00,61.1,56.6,29.84,WSW,252,1.0,6.0,85,0.00,,,0.04,Wunderground v.1.12,2013-11-01 01:00:00,
2013-10-31 21:05:00,61.1,56.6,29.84,SW,229,2.0,2.0,85,0.00,,,0.04,Wunderground v.1.12,2013-11-01 01:05:00,
2013-10-31 21:10:00,61.0,56.5,29.83,WSW,238,0.0,0.0,85,0.00,,,0.04,Wunderground v.1.12,2013-11-01 01:10:00,
2013-10-31 21:15:00,61.0,56.8,29.83,SW,217,0.0,0.0,86,0.00,,,0.04,Wunderground v.1.12,2013-11-01 01:15:00,
2013-10-31 21:20:00,60.9,56.4,29.83,WSW,242,0.0,1.0,85,0.00,,,0.04,Wunderground v.1.12,2013-11-01 01:20:00,
2013-10-31 21:25:00,61.2,56.7,29.83,SW,232,1.0,1.0,85,0.00,,,0.04,Wunderground v.1.12,2013-11-01 01:25:00,
2013-10-31 21:30:00,61.1,56.9,29.83,WSW,239,0.0,1.0,86,0.00,,,0.04,Wunderground v.1.12,2013-11-01 01:30:00,
2013-10-31 21:35:00,61.0,56.8,29.83,WSW,238,0.0,2.0,86,0.00,,,0.04,Wunderground v.1.12,2013-11-01 01:35:00,
2013-10-31 21:40:00,60.9,57.0,29.82,West,277,1.0,2.0,87,0.00,,,0.05,Wunderground v.1.12,2013-11-01 01:40:00,
2013-10-31 21:45:00,60.9,57.0,29.82,West,261,0.0,1.0,87,0.00,,,0.05,Wunderground v.1.12,2013-11-01 01:45:00,
2013-10-31 21:50:00,60.7,57.1,29.82,SW,229,0.0,1.0,88,0.00,,,0.05,Wunderground v.1.12,2013-11-01 01:50:00,
2013-10-31 21:56:00,60.5,57.2,29.82,WSW,251,0.0,1.0,89,0.00,,,0.05,Wunderground v.1.12,2013-11-01 01:56:00,
2013-10-31 22:01:00,60.3,57.4,29.82,SW,229,0.0,1.0,90,0.00,,,0.06,Wunderground v.1.12,2013-11-01 02:01:00,
2013-10-31 22:06:00,60.0,57.4,29.81,SW,232,1.0,2.0,91,0.00,,,0.06,Wunderground v.1.12,2013-11-01 02:06:00,
2013-10-31 22:11:00,59.7,57.1,29.81,WSW,242,0.0,1.0,91,0.07,,,0.07,Wunderground v.1.12,2013-11-01 02:11:00,
2013-10-31 22:16:00,59.3,57.3,29.81,WSW,249,0.0,1.0,93,0.06,,,0.07,Wunderground v.1.12,2013-11-01 02:16:00,
2013-10-31 22:21:00,59.1,57.1,29.81,WSW,257,0.0,1.0,93,0.04,,,0.07,Wunderground v.1.12,2013-11-01 02:21:00,
2013-10-31 22:26:00,59.0,57.0,29.81,WSW,248,0.0,0.0,93,0.00,,,0.08,Wunderground v.1.12,2013-11-01 02:26:00,
2013-10-31 22:31:00,58.9,57.2,29.81,SW,230,1.0,3.0,94,0.00,,,0.08,Wunderground v.1.12,2013-11-01 02:31:00,
2013-10-31 22:36:00,58.9,57.2,29.81,West,260,0.0,1.0,94,0.00,,,0.08,Wunderground v.1.12,2013-11-01 02:36:00,
2013-10-31 22:41:00,58.9,57.2,29.81,SW,234,0.0,0.0,94,0.00,,,0.08,Wunderground v.1.12,2013-11-01 02:41:00,
2013-10-31 22:46:00,58.8,57.1,29.81,WSW,240,1.0,1.0,94,0.00,,,0.08,Wunderground v.1.12,2013-11-01 02:46:00,
2013-10-31 22:52:00,58.8,57.4,29.80,WSW,240,0.0,1.0,95,0.00,,,0.08,Wunderground v.1.12,2013-11-01 02:52:00,
2013-10-31 22:57:00,58.8,57.4,29.80,WSW,252,0.0,1.0,95,0.00,,,0.08,Wunderground v.1.12,2013-11-01 02:57:00,
2013-10-31 23:02:00,58.8,57.4,29.80,WSW,238,0.0,2.0,95,0.00,,,0.08,Wunderground v.1.12,2013-11-01 03:02:00,
2013-10-31 23:07:00,58.8,57.4,29.79,West,269,1.0,1.0,95,0.00,,,0.09,Wunderground v.1.12,2013-11-01 03:07:00,
2013-10-31 23:12:00,58.8,57.4,29.79,SW,221,3.0,3.0,95,0.00,,,0.09,Wunderground v.1.12,2013-11-01 03:12:00,
2013-10-31 23:17:00,58.7,57.3,29.79,West,259,2.0,4.0,95,0.00,,,0.09,Wunderground v.1.12,2013-11-01 03:17:00,
2013-10-31 23:22:00,58.8,57.7,29.78,WSW,250,0.0,2.0,96,0.00,,,0.09,Wunderground v.1.12,2013-11-01 03:22:00,
2013-10-31 23:27:00,58.8,57.7,29.78,WSW,241,0.0,1.0,96,0.00,,,0.09,Wunderground v.1.12,2013-11-01 03:27:00,
2013-10-31 23:32:00,58.6,57.5,29.78,WSW,247,0.0,1.0,96,0.00,,,0.09,Wunderground v.1.12,2013-11-01 03:32:00,
2013-10-31 23:37:00,58.6,57.5,29.76,WSW,254,0.0,1.0,96,0.00,,,0.09,Wunderground v.1.12,2013-11-01 03:37:00,
2013-10-31 23:42:00,58.5,57.4,29.76,WSW,257,0.0,1.0,96,0.00,,,0.09,Wunderground v.1.12,2013-11-01 03:42:00,
2013-10-31 23:48:00,58.5,57.7,29.76,SW,235,2.0,2.0,97,0.00,,,0.09,Wunderground v.1.12,2013-11-01 03:48:00,
2013-10-31 23:53:00,58.6,57.8,29.76,SW,235,0.0,0.0,97,0.00,,,0.09,Wunderground v.1.12,2013-11-01 03:53:00,
2013-10-31 23:59:00,58.7,57.9,29.76,WSW,246,0.0,1.0,97,0.00,,,0.09,Wunderground v.1.12,2013-11-01 03:59:00,